Change the Weather History Date:

Tuesday, March 4, 2014

  Actual Average Record
Temperature  
Mean Temperature 42 °F -  
Max Temperature 48 °F 47 °F 66 °F (1998)
Min Temperature 35 °F 31 °F 8 °F (2005)
Degree Days  
Heating Degree Days 24    
Moisture  
Dew Point 37 °F    
Average Humidity 81    
Maximum Humidity 94    
Minimum Humidity 53    
Precipitation  
Precipitation 0.00 in 0.04 in - ()
Sea Level Pressure  
Sea Level Pressure 29.59 in    
Wind  
Wind Speed 7 mph ()    
Max Wind Speed 11 mph    
Max Gust Speed -    
Visibility 6.7 miles    
Events Rain    
Averages and records for this station are not official NWS values.
T = Trace of Precipitation, MM = Missing Value Source: Averaged Metar Reports

Daily Weather History Graph

Daily Weather History Graph

Search for Another Location

Airport or City:

Trip Planner

Search our weather history database for the weather conditions in past years. The results will help you decide how hot, cold, wet, or windy it might be!

Date:

Astronomy

Mar. 04, 2014 Rise Set
Actual Time 6:40 AM CET 5:49 PM CET
Civil Twilight 6:08 AM CET 6:22 PM CET
Nautical Twilight 5:30 AM CET 6:59 PM CET
Astronomical Twilight 4:53 AM CET 7:37 PM CET
Moon 7:53 AM CET (3/4) 10:04 PM CET (3/4)
Length of Visible Light 12h 13m
Length of Day
11h 09m
Waxing Crescent, 13% of the Moon is Illuminated
Mar 4
Waxing Crescent
Mar 8
First Quarter
Mar 16
Full
Mar 24
Last Quarter
Mar 30
New

Hourly Weather History & Observations

Time (CET) Temp. Windchill Dew Point Humidity Pressure Visibility Wind Dir Wind Speed Gust Speed Precip Events Conditions
12:00 AM 43 °F - 36 °F 68% 29.48 in 16 mi ESE 8.9 mph - - Rain Light Rain
12:00 AM 42.8 °F 37.0 °F 35.6 °F 76% 29.44 in 6.2 mi SE 10.4 mph - N/A Rain Light Rain
12:30 AM 42.8 °F 37.5 °F 37.4 °F 81% 29.44 in 6.2 mi ESE 9.2 mph - N/A Rain Light Rain
1:00 AM 41 °F - 38 °F 86% 29.49 in 7 mi East 8.9 mph - - Rain Light Rain
1:00 AM 41.0 °F 36.4 °F 37.4 °F 87% 29.44 in 6.2 mi East 6.9 mph - N/A Rain Light Rain
1:30 AM 41.0 °F 36.4 °F 39.2 °F 93% 29.44 in 6.2 mi East 6.9 mph - N/A Rain Light Rain
2:00 AM 41 °F - 38 °F 87% 29.50 in 6 mi East 6.7 mph - - Rain Light Rain
2:00 AM 41.0 °F 36.4 °F 39.2 °F 93% 29.44 in 6.2 mi East 6.9 mph - N/A   Overcast
2:30 AM 41.0 °F 36.4 °F 37.4 °F 87% 29.44 in 5.6 mi East 6.9 mph - N/A   Overcast
3:00 AM 40 °F - 38 °F 89% 29.51 in 7 mi East 6.7 mph - -   Overcast
3:00 AM 41.0 °F 35.8 °F 37.4 °F 87% 29.47 in 6.2 mi East 8.1 mph - N/A   Overcast
3:30 AM 41.0 °F 35.2 °F 37.4 °F 87% 29.47 in 6.2 mi East 9.2 mph - N/A   Overcast
4:00 AM 41 °F - 37 °F 80% 29.51 in 6 mi East 8.9 mph - - Rain Light Rain
4:00 AM 41.0 °F 35.8 °F 37.4 °F 87% 29.47 in 6.2 mi East 8.1 mph - N/A   Overcast
4:30 AM 41.0 °F 36.4 °F 37.4 °F 87% 29.47 in 6.2 mi East 6.9 mph - N/A   Overcast
5:00 AM 41 °F - 37 °F 80% 29.52 in 7 mi East 8.9 mph - -   Overcast
5:00 AM 41.0 °F 34.7 °F 37.4 °F 87% 29.47 in 6.2 mi East 10.4 mph - N/A   Overcast
5:30 AM 41.0 °F 35.8 °F 37.4 °F 87% 29.47 in 6.2 mi East 8.1 mph - N/A   Overcast
6:00 AM 40 °F - 37 °F 84% 29.53 in 7 mi East 8.9 mph - -   Overcast
6:00 AM 41.0 °F 35.2 °F 37.4 °F 87% 29.47 in 6.2 mi East 9.2 mph - N/A   Overcast
6:30 AM 41.0 °F 35.8 °F 37.4 °F 87% 29.47 in 6.2 mi East 8.1 mph - N/A   Overcast
7:00 AM 40 °F - 37 °F 84% 29.55 in 6 mi East 6.7 mph - -   Partly Cloudy
7:00 AM 41.0 °F 36.4 °F 37.4 °F 87% 29.50 in 6.2 mi East 6.9 mph - N/A   Mostly Cloudy
7:30 AM 41.0 °F 36.4 °F 37.4 °F 87% 29.50 in 6.2 mi East 6.9 mph - N/A   Mostly Cloudy
8:00 AM 41 °F - 37 °F 80% 29.57 in 7 mi East 6.7 mph - -   Overcast
8:00 AM 41.0 °F 36.4 °F 37.4 °F 87% 29.53 in 6.2 mi East 6.9 mph - N/A   Mostly Cloudy
8:30 AM 41.0 °F 36.4 °F 37.4 °F 87% 29.53 in 6.2 mi East 6.9 mph - N/A   Overcast
9:00 AM 41 °F - 38 °F 83% 29.58 in 7 mi East 8.9 mph - -   Mostly Cloudy
9:00 AM 41.0 °F 35.8 °F 37.4 °F 87% 29.53 in 6.2 mi ENE 8.1 mph - N/A   Partly Cloudy
9:30 AM 42.8 °F 37.5 °F 37.4 °F 81% 29.53 in 6.2 mi East 9.2 mph - N/A   Partly Cloudy
10:00 AM 43 °F - 38 °F 75% 29.59 in 7 mi East 8.9 mph - -   Mostly Cloudy
10:00 AM 42.8 °F 37.5 °F 37.4 °F 81% 29.56 in 6.2 mi East 9.2 mph - N/A   Partly Cloudy
10:30 AM 42.8 °F 38.6 °F 37.4 °F 81% 29.56 in 6.2 mi East 6.9 mph - N/A   Partly Cloudy
11:00 AM 44 °F - 38 °F 71% 29.60 in 7 mi East 6.7 mph - -   Mostly Cloudy
11:00 AM 44.6 °F 40.2 °F 37.4 °F 76% 29.56 in 6.2 mi East 8.1 mph - N/A   Partly Cloudy
11:30 AM 44.6 °F 40.7 °F 37.4 °F 76% 29.56 in 6.2 mi East 6.9 mph - N/A   Scattered Clouds
12:00 PM 46 °F - 37 °F 61% 29.61 in 9 mi East 6.7 mph - -   Mostly Cloudy
12:00 PM 46.4 °F 42.9 °F 37.4 °F 71% 29.59 in 6.2 mi East 6.9 mph - N/A   Mostly Cloudy
12:30 PM 46.4 °F 43.5 °F 35.6 °F 66% 29.59 in 6.2 mi East 5.8 mph - N/A   Mostly Cloudy
1:00 PM 47 °F - 36 °F 54% 29.61 in 9 mi ENE 6.7 mph - -   Mostly Cloudy
1:00 PM 46.4 °F 42.9 °F 35.6 °F 66% 29.59 in 6.2 mi ENE 6.9 mph - N/A   Mostly Cloudy
1:30 PM 48.2 °F - 33.8 °F 58% 29.59 in 6.2 mi Variable 2.3 mph - N/A   Mostly Cloudy
2:00 PM 46 °F - 35 °F 55% 29.62 in 12 mi ENE 11.2 mph - -   Mostly Cloudy
2:00 PM 46.4 °F 44.3 °F 35.6 °F 66% 29.59 in 6.2 mi East 4.6 mph - N/A   Mostly Cloudy
2:30 PM 46.4 °F 41.9 °F 35.6 °F 66% 29.59 in 6.2 mi East 9.2 mph - N/A   Mostly Cloudy
3:00 PM 47 °F - 35 °F 53% 29.63 in 12 mi East 6.7 mph - -   Mostly Cloudy
3:00 PM 46.4 °F 42.9 °F 35.6 °F 66% 29.59 in 6.2 mi East 6.9 mph - N/A   Mostly Cloudy
3:30 PM 46.4 °F 43.5 °F 35.6 °F 66% 29.62 in 6.2 mi East 5.8 mph - N/A   Mostly Cloudy
3:48 PM 44.6 °F 40.7 °F 37.4 °F 76% 29.62 in 6.2 mi SE 6.9 mph - N/A Rain Light Rain
4:00 PM 44.6 °F 42.2 °F 37.4 °F 76% 29.62 in 6.2 mi SE 4.6 mph - N/A Rain Light Rain
4:10 PM 44 °F - 38 °F 73% 29.65 in 9 mi East 6.7 mph - - Rain Light Rain
4:30 PM 44.6 °F 42.2 °F 39.2 °F 81% 29.62 in 6.2 mi ESE 4.6 mph - N/A   Overcast
5:00 PM 44 °F - 38 °F 74% 29.67 in 9 mi East 4.5 mph - - Rain Light Rain
5:00 PM 44.6 °F 43.1 °F 39.2 °F 81% 29.62 in 6.2 mi SSE 3.5 mph - N/A   Mostly Cloudy
5:30 PM 42.8 °F 39.3 °F 39.2 °F 87% 29.65 in 6.2 mi East 5.8 mph - N/A   Mostly Cloudy
6:00 PM 41 °F - 37 °F 81% 29.70 in 7 mi East 4.5 mph - -   Mostly Cloudy
6:00 PM 41.0 °F 39.0 °F 37.4 °F 87% 29.65 in 6.2 mi ENE 3.5 mph - N/A   Mostly Cloudy
6:30 PM 41.0 °F 38.0 °F 37.4 °F 87% 29.65 in 6.2 mi ENE 4.6 mph - N/A   Scattered Clouds
7:00 PM 39 °F - 36 °F 87% 29.72 in 9 mi East 6.7 mph - -   Partly Cloudy
7:00 PM 39.2 °F 37.0 °F 35.6 °F 87% 29.68 in 6.2 mi East 3.5 mph - N/A   Partly Cloudy
7:30 PM 39.2 °F - 35.6 °F 87% 29.68 in 6.2 mi Variable 2.3 mph - N/A   Partly Cloudy
8:00 PM 35 °F - 34 °F 93% 29.75 in 6 mi WNW 2.2 mph - -   Scattered Clouds
8:00 PM 35.6 °F - 33.8 °F 93% 29.68 in - Variable 2.3 mph - N/A   Clear
8:30 PM 35.6 °F - 33.8 °F 93% 29.71 in 5.6 mi Variable 1.2 mph - N/A   Scattered Clouds
9:00 PM 37 °F - 36 °F 94% 29.77 in 6 mi WNW 2.2 mph - -   Mist
9:00 PM 37.4 °F - 35.6 °F 93% 29.71 in 5.6 mi Calm Calm - N/A   Mostly Cloudy
9:30 PM 37.4 °F - 35.6 °F 93% 29.71 in 5.6 mi Variable 2.3 mph - N/A   Mostly Cloudy
10:00 PM 37 °F - 36 °F 92% 29.79 in 6 mi SSW 2.2 mph - -   Mist
10:00 PM 37.4 °F - 35.6 °F 93% 29.74 in 5.6 mi Variable 1.2 mph - N/A   Mostly Cloudy
10:30 PM 37.4 °F - 35.6 °F 93% 29.74 in 5.6 mi West 2.3 mph - N/A   Partly Cloudy
11:00 PM 38 °F - 36 °F 90% 29.80 in 6 mi West 2.2 mph - -   Mist
11:00 PM 37.4 °F - 35.6 °F 93% 29.74 in 5.6 mi WSW 1.2 mph - N/A   Scattered Clouds
11:30 PM 37.4 °F - 35.6 °F 93% 29.74 in 5.6 mi Variable 2.3 mph - N/A   Mostly Cloudy